Regional Weather Roundup
Issued by NWS Austin/San Antonio, TX

Current Version | Previous Version | Text Only | Print | Product List | Glossary On
Versions: 1 2 3 4 5 6 7 8 9 10 11 12 13 14 15 16 17 18 19 20 21 22 23 24 25 26 27 28 29 30 31 32 33 34 35 36 37 38 39 40 41 42 43 44 45 46 47 48 49 50
000
ASUS44 KEWX 151510
RWREWX
SOUTH TEXAS REGIONAL WEATHER ROUNDUP
NATIONAL WEATHER SERVICE AUSTIN/SAN ANTONIO TX
1000 AM CDT THU APR 15 2021

NOTE: "FAIR" INDICATED FEW OR NO CLOUDS BELOW 12,000 FEET WITH NO
SIGNIFICANT WEATHER AND/OR OBSTRUCTIONS TO VISIBILITY.

* - THESE STATIONS ARE NOT NWS OR FAA STATIONS...AND ARE NOT SUBJECT
    TO NWS AND FAA QUALITY CONTROL.

TXZ171-172-183>190-151600-
TEXAS HILL COUNTRY AND EDWARDS PLATEAU

CITY           SKY/WX    TMP DP  RH WIND       PRES   REMARKS
JUNCTION       CLOUDY    62  59  90 E14       29.97S FOG
*LLANO         CLOUDY    61  59  94 E8        30.00R
BURNET         CLOUDY    60  58  92 NE14G22   30.01F
*HORSESHOE BAY CLOUDY    61  59  93 E9G16     29.99F
*LAGO VISTA    NOT AVBL
*KERRVILLE     CLOUDY    63  60  91 E9        29.98S FOG
*FREDERICKSBRG CLOUDY   N/A N/A N/A E7        29.99F FOG
*ROCKSPRINGS     N/A     66  64  94 SE10G17   29.97F
*BOERNE        CLOUDY    61  61 100 E9        29.97S
*CASTROVILLE   CLOUDY    70  65  86 E13G18    29.97R
HONDO          CLOUDY    69  63  81 E15       29.94R
*UVALDE        CLOUDY    70  68  94 E10       29.94R FOG
DEL RIO        CLOUDY    74  70  87 E10       29.88S FOG
*LAUGHLIN AFB  CLOUDY    72  70  95 SE12      29.89S
*SPOFFORD      NOT AVBL
*EAGLE PASS    CLOUDY    72  68  88 E12       29.88F FOG
CARRIZO SPRGS  DRIZZLE   70  70 100 E5        29.90R
*FAITH RANCH   PTSUNNY   75  72  88 E8        29.90R FOG
$$

TXZ173-191>194-202-209-217>225-228-151600-
CENTRAL AND SOUTH CENTRAL TEXAS

CITY           SKY/WX    TMP DP  RH WIND       PRES   REMARKS
GEORGETOWN     CLOUDY    60  58  92 NE10      30.03F FOG
*TAYLOR        CLOUDY    62  58  86 E10       30.00F FOG
AUSTIN/BERGSTM LGT RAIN  61  60  97 NE17G23   29.98F FOG
AUSTIN/MABRY     N/A     64  58  80 VRB6      30.00S
*PFLUGERVILLE  FAIR      61  61 100 NE13      29.99S FOG
SAN MARCOS     CLOUDY    64  64 100 NE15      29.99R
NEW BRAUNFELS  CLOUDY    65  63  93 E12       29.96S FOG
*RANDOLPH AFB  CLOUDY    64  64  99 NE15      29.94  FOG
*SEGUIN        CLOUDY    64  62  96 E15       30.01R
SAN ANTONIO    CLOUDY    66  62  87 NE13G25   29.95F
STINSON FIELD  CLOUDY    67  64  90 NE13G23   29.93F FOG
*KELLY FIELD   CLOUDY    66  63  88 NE12      29.92S FOG
*PLEASANTON    CLOUDY    69  67  93 NE10      29.93S FOG
*KENEDY        CLOUDY    68  65  93 NE14      29.95R FOG
*LA GRANGE     CLOUDY    64  63  96 NE7       29.97R
*GIDDINGS      CLOUDY    61  59  94 NE7       30.00R FOG
*GONZALES      CLOUDY    65  64  96 NE9G18    29.97R
$$

TXZ163>164-176>182-195>201-210>213-226-227-235-151600-
SOUTHEAST TEXAS

CITY           SKY/WX    TMP DP  RH WIND       PRES   REMARKS
COLLEGE STN    CLOUDY    64  57  78 NE9       29.99F
*BRYAN         CLOUDY    63  59  87 E8        30.01S
*CALDWELL      CLOUDY    62  58  86 NE10      30.00F
*CROCKETT      CLOUDY    59  57  94 NE10      30.02F
*BRENHAM       CLOUDY    63  60  90 NE6       30.00S
HUNTSVILLE     CLOUDY    63  60  90 E5        29.99F
CONROE         CLOUDY    64  58  80 E8        29.98F
HOUSTON BUSH   CLOUDY    65  60  84 NE12      29.97F
HOUSTON HOBBY  CLOUDY    65  61  87 NE14      29.96S
*HOUSTON SW AP CLOUDY    65  64  96 NE10G18   29.97F
PEARLAND       CLOUDY    65  61  87 NE15      29.98S
HOUSTON HOOKS  CLOUDY    63  59  87 NE8       29.98F
ELLINGTON FLD  CLOUDY    64  61  88 N15       29.97S
SUGAR LAND     CLOUDY    67  61  81 NE9       29.96S
*HOUSTON EXEC  CLOUDY    64  63  94 NE16      29.98F
*CLEVELAND MUN NOT AVBL
*WHARTON       CLOUDY    65  64  93 NE10      29.96F
*COLUMBUS      CLOUDY    64  62  93 NE9       29.99R
*EAGLE LAKE    CLOUDY    65  63  91 NE12      29.97S
$$

TXZ214>216-236>238-151600-
THE UPPER TEXAS COAST

CITY           SKY/WX    TMP DP  RH WIND       PRES   REMARKS
*ORANGE        CLOUDY    65  59  82 NE8       29.99R
PORT ARTHUR    CLOUDY    64  61  90 NE10      29.96F
GALVESTON      CLOUDY    67  61  81 N20       29.96R HAZE
ANGLETON       CLOUDY    67  64  90 NE13      29.96R
*BAY CITY      CLOUDY    66  65  96 NE9       29.95S
PALACIOS       CLOUDY    68  67  96 NE16      29.92F FOG
$$

TXZ229>234-239>247-151600-
TEXAS COASTAL BEND AND RIO GRANDE PLAINS

CITY           SKY/WX    TMP DP  RH WIND       PRES   REMARKS
VICTORIA       CLOUDY    68  65  90 NE16G24   29.92F
*BEEVILLE      CLOUDY    72  72  99 NE12G18   29.90S
ROCKPORT       CLOUDY    73  71  93 NE16      29.88F FOG
*PORT ARANSAS  CLOUDY    73  72  99 NE16      29.91S FOG
*PORT LAVACA   CLOUDY    70  67  89 NE14      29.92F FOG
*INGLESIDE     CLOUDY    74  73  95 E13       29.88F
CORPUS CHRISTI LGT RAIN  74  73  97 E16       29.88S FOG
CORPUS NAS     CLOUDY    76  73  91 NE13      29.88S
*ROBSTOWN      CLOUDY    76  75  96 E10       29.88F FOG
ALICE          CLOUDY    73  73 100 NE12      29.88S FOG
KINGSVILLE NAS CLOUDY    76  73  91 E12       29.86F FOG
COTULLA        CLOUDY    73  68  84 E10G21    29.90R HAZE
LAREDO         CLOUDY    80  73  79 E9        29.85S
$$

TXZ248>255-151600-
DEEP SOUTH TEXAS

CITY           SKY/WX    TMP DP  RH WIND       PRES   REMARKS
BROWNSVILLE    CLOUDY    81  72  74 SE12      29.85S
PORT ISABEL    CLOUDY    78  73  84 SE10      29.86S
HARLINGEN      CLOUDY    80  75  84 SE14      29.84F
*HEBBRONVILLE  CLOUDY    74  68  80 E10       29.88R HAZE
MCALLEN        CLOUDY    79  72  79 E12       29.84R HAZE
*WESLACO       CLOUDY    79  72  80 SE9       29.84S
FALFURRIAS     CLOUDY    75  73  96 E8        29.85F
EDINBURG       CLOUDY    79  73  83 SE13      29.84F
*ZAPATA        CLOUDY    82  73  76 E8        29.86R
$$

TXZ213>215-236>238-242>244-246-247-251-254-255-151600-
CMAN STATIONS

STATION/POSITION TIME  TEMP    WIND        PRES    WAVE
                       AIR SEA DIR/SP/G            HT/PER
                 (UTC) (F)     (DEG/KT/KT) (MB)    (FT/S)
NORTH JETTY/GLS  1418   67 73   30/ 21/ 23 1013.1
EAGLE POINT      1424   65 74   20/ 16/ 21 1014.2
MORGANS POINT    1424   63 73   30/ 11/ 16 1015.1
MISSION/ARANSAS  1400   72      10/ 14     1014.0
PORT O`CONNOR    1424   69 78   30/ 16/ 17 1012.9
PORT ARANSAS     1500   71 74   40/ 16/ 18 1011.7
MALAQUITE BEACH  1424   72      40/ 14/ 16   N/A
BAFFIN BAY       1424           50/ 13/ 14   N/A
PORT ISABEL      1424   76 77  100/  7/  9 1013.1
$$



USA.gov is the U.S. government's official web portal to all federal, state and local government web resources and services.